Location: Newark
(34.6283°N, 36.0776°E)
Time: 00:12:23
(UTC+00:00)

Tiros 1 despin weight - Pass Details

Date: 24 September 2019
Orbit: 594 x 643 km, 48.2° (Epoch: 16 October)

Event Time Altitude Azimuth Distance (km) Brightness Sun altitude
Rises 15:13:10 0° 301° (WNW) 2,840 ? 2.7°
Reaches altitude 10° 15:15:32 10° 295° (WNW) 1,930 ? 2.2°
Maximum altitude 15:19:43 42° 224° (SW) 843 ? 1.4°
Drops below altitude 10° 15:23:52 10° 153° (SSE) 1,912 ? 0.5°
Sets 15:26:13 0° 146° (SE) 2,811 ? 0.0°
